When you browse on this site, cookies collect data to enhance your experience and personalize the content and advertising you see.
Visit our Privacy Policy to learn more. By continuing to use the site, you agree to this use of cookies and data.
  • In Lithuania
  • List of Countries
  • For 7 days
  • Water Temperature
  • Satellite Maps
  • Weather Map
  • Weather Widgets
  • user-avatar
    Login

    Hourly Weather Erandol

    Today, 15 December, Saturday

    Time Temperature Precipitation Wind Pressure Humidity
    00:00 +19°C° 0 mm 2 mps 745 mmHg 52%
    01:00 +19°C° 0 mm 2 mps 744 mmHg 53%
    02:00 +19°C° 0 mm 2 mps 744 mmHg 54%
    03:00 +18°C° 0 mm 2 mps 744 mmHg 56%
    04:00 +18°C° 0 mm 2 mps 744 mmHg 57%
    05:00 +17°C° 0 mm 2 mps 744 mmHg 60%
    06:00 +18°C° 0 mm 2 mps 744 mmHg 57%
    07:00 +18°C° 0 mm 2 mps 744 mmHg 55%
    08:00 +19°C° 0 mm 3 mps 745 mmHg 52%
    09:00 +21°C° 0 mm 3 mps 745 mmHg 47%
    10:00 +23°C° 0 mm 4 mps 744 mmHg 41%
    11:00 +27°C° 0 mm 4 mps 745 mmHg 34%
    12:00 +28°C° 0 mm 4 mps 744 mmHg 32%
    13:00 +28°C° 0 mm 4 mps 743 mmHg 31%
    14:00 +29°C° 0 mm 4 mps 743 mmHg 29%
    15:00 +28°C° 0 mm 4 mps 743 mmHg 31%
    16:00 +28°C° 0 mm 3 mps 743 mmHg 32%
    17:00 +27°C° 0 mm 3 mps 742 mmHg 34%
    18:00 +26°C° 0 mm 3 mps 743 mmHg 35%
    19:00 +25°C° 0 mm 3 mps 743 mmHg 37%
    20:00 +22°C° 0 mm 3 mps 744 mmHg 38%
    21:00 +22°C° 0 mm 3 mps 744 mmHg 39%
    22:00 +21°C° 0 mm 3 mps 744 mmHg 41%
    23:00 +20°C° 0 mm 3 mps 744 mmHg 42%

    Tomorrow, 16 December, Sunday

    Time Temperature Precipitation Wind Pressure Humidity
    00:00 +20°C° 0 mm 3 mps 744 mmHg 43%
    01:00 +19°C° 0 mm 3 mps 744 mmHg 44%
    02:00 +19°C° 0 mm 2 mps 743 mmHg 46%
    03:00 +18°C° 0 mm 2 mps 744 mmHg 47%
    04:00 +18°C° 0 mm 2 mps 744 mmHg 48%
    05:00 +17°C° 0 mm 3 mps 744 mmHg 49%
    06:00 +18°C° 0 mm 2 mps 744 mmHg 47%
    07:00 +19°C° 0 mm 2 mps 744 mmHg 46%
    08:00 +20°C° 0 mm 2 mps 745 mmHg 44%
    09:00 +22°C° 0 mm 3 mps 745 mmHg 39%
    10:00 +25°C° 0 mm 3 mps 745 mmHg 34%
    11:00 +27°C° 0 mm 4 mps 745 mmHg 29%
    12:00 +28°C° 0 mm 4 mps 744 mmHg 27%
    13:00 +29°C° 0 mm 4 mps 743 mmHg 25%
    14:00 +30°C° 0 mm 4 mps 742 mmHg 22%
    15:00 +29°C° 0 mm 4 mps 742 mmHg 24%
    16:00 +28°C° 0 mm 3 mps 742 mmHg 26%
    17:00 +27°C° 0 mm 3 mps 742 mmHg 28%
    18:00 +26°C° 0 mm 3 mps 743 mmHg 30%
    19:00 +25°C° 0 mm 3 mps 743 mmHg 32%
    20:00 +22°C° 0 mm 3 mps 744 mmHg 34%
    21:00 +22°C° 0 mm 3 mps 744 mmHg 36%
    22:00 +21°C° 0 mm 3 mps 744 mmHg 38%
    23:00 +20°C° 0 mm 3 mps 744 mmHg 39%

    Day after tomorrow, 17 December, Monday

    Time Temperature Precipitation Wind Pressure Humidity
    00:00 +20°C° 0 mm 3 mps 744 mmHg 41%
    01:00 +19°C° 0 mm 3 mps 743 mmHg 43%
    02:00 +19°C° 0 mm 2 mps 743 mmHg 44%
    03:00 +18°C° 0 mm 2 mps 743 mmHg 45%
    04:00 +18°C° 0 mm 2 mps 743 mmHg 47%
    05:00 +17°C° 0 mm 2 mps 743 mmHg 48%
    06:00 +18°C° 0 mm 2 mps 743 mmHg 46%
    07:00 +19°C° 0 mm 2 mps 744 mmHg 44%
    08:00 +20°C° 0 mm 2 mps 745 mmHg 42%
    09:00 +21°C° 0 mm 3 mps 744 mmHg 37%
    10:00 +24°C° 0 mm 3 mps 744 mmHg 33%
    11:00 +26°C° 0 mm 4 mps 744 mmHg 28%
    12:00 +27°C° 0 mm 4 mps 743 mmHg 27%
    13:00 +28°C° 0 mm 4 mps 742 mmHg 25%
    14:00 +29°C° 0 mm 4 mps 741 mmHg 23%
    15:00 +28°C° 0 mm 4 mps 741 mmHg 25%
    16:00 +27°C° 0 mm 3 mps 742 mmHg 26%
    17:00 +26°C° 0 mm 3 mps 742 mmHg 28%
    18:00 +25°C° 0 mm 3 mps 742 mmHg 31%
    19:00 +24°C° 0 mm 3 mps 743 mmHg 35%
    20:00 +21°C° 0 mm 3 mps 743 mmHg 38%
    21:00 +20°C° 0 mm 3 mps 743 mmHg 43%
    22:00 +20°C° 0 mm 3 mps 743 mmHg 47%
    23:00 +19°C° 0 mm 2 mps 743 mmHg 51%

    18 December, Tuesday

    Time Temperature Precipitation Wind Pressure Humidity
    00:00 +19°C° 0 mm 2 mps 743 mmHg 55%
    01:00 +18°C° 0 mm 2 mps 743 mmHg 58%
    02:00 +17°C° 0 mm 2 mps 743 mmHg 61%
    03:00 +17°C° 0 mm 2 mps 743 mmHg 63%
    04:00 +18°C° 0 mm 1 mps 743 mmHg 65%
    05:00 +16°C° 0 mm 1 mps 743 mmHg 67%
    06:00 +18°C° 0 mm 1 mps 744 mmHg 65%
    07:00 +19°C° 0 mm 1 mps 744 mmHg 62%
    08:00 +19°C° 0 mm 1 mps 745 mmHg 60%
    09:00 +20°C° 0 mm 2 mps 745 mmHg 54%
    10:00 +23°C° 0 mm 2 mps 744 mmHg 48%
    11:00 +25°C° 0 mm 3 mps 744 mmHg 42%
    12:00 +26°C° 0 mm 3 mps 743 mmHg 39%
    13:00 +27°C° 0 mm 3 mps 742 mmHg 35%
    14:00 +28°C° 0 mm 3 mps 741 mmHg 32%
    15:00 +28°C° 0 mm 3 mps 741 mmHg 34%
    16:00 +27°C° 0 mm 3 mps 741 mmHg 35%
    17:00 +26°C° 0 mm 3 mps 741 mmHg 37%
    18:00 +25°C° 0 mm 3 mps 742 mmHg 40%
    19:00 +24°C° 0 mm 3 mps 742 mmHg 43%
    20:00 +22°C° 0 mm 3 mps 743 mmHg 46%
    21:00 +21°C° 0 mm 3 mps 743 mmHg 48%
    22:00 +21°C° 0 mm 2 mps 743 mmHg 49%
    23:00 +20°C° 0 mm 2 mps 743 mmHg 51%

    19 December, Wednesday

    Time Temperature Precipitation Wind Pressure Humidity
    00:00 +19°C° 0 mm 2 mps 743 mmHg 52%
    01:00 +19°C° 0 mm 2 mps 742 mmHg 54%
    02:00 +19°C° 0 mm 2 mps 742 mmHg 55%
    03:00 +18°C° 0 mm 2 mps 742 mmHg 57%
    04:00 +18°C° 0 mm 2 mps 742 mmHg 58%
    05:00 +18°C° 0 mm 2 mps 742 mmHg 60%
    06:00 +18°C° 0 mm 2 mps 743 mmHg 59%
    07:00 +19°C° 0 mm 2 mps 744 mmHg 59%
    08:00 +20°C° 0 mm 2 mps 744 mmHg 58%
    09:00 +22°C° 0 mm 3 mps 744 mmHg 53%
    10:00 +25°C° 0 mm 3 mps 744 mmHg 48%
    11:00 +27°C° 0 mm 4 mps 744 mmHg 42%
    12:00 +27°C° 0 mm 3 mps 743 mmHg 38%
    13:00 +28°C° 0 mm 3 mps 742 mmHg 33%
    14:00 +29°C° 0 mm 3 mps 741 mmHg 29%
    15:00 +29°C° 0 mm 3 mps 741 mmHg 30%
    16:00 +28°C° 0 mm 3 mps 741 mmHg 31%
    17:00 +28°C° 0 mm 3 mps 741 mmHg 32%
    18:00 +26°C° 0 mm 3 mps 742 mmHg 35%
    19:00 +25°C° 0 mm 2 mps 742 mmHg 37%
    20:00 +24°C° 0 mm 2 mps 743 mmHg 39%
    21:00 +23°C° 0 mm 2 mps 743 mmHg 40%
    22:00 +22°C° 0 mm 3 mps 743 mmHg 41%
    23:00 +21°C° 0 mm 3 mps 743 mmHg 42%

    20 December, Thursday

    Time Temperature Precipitation Wind Pressure Humidity
    00:00 +21°C° 0 mm 2 mps 743 mmHg 43%
    01:00 +20°C° 0 mm 2 mps 742 mmHg 45%
    02:00 +20°C° 0 mm 2 mps 742 mmHg 46%
    03:00 +19°C° 0 mm 2 mps 742 mmHg 49%
    04:00 +19°C° 0 mm 2 mps 742 mmHg 52%
    05:00 +18°C° 0 mm 2 mps 742 mmHg 55%
    06:00 +19°C° 0 mm 2 mps 743 mmHg 55%
    07:00 +20°C° 0 mm 2 mps 743 mmHg 55%
    08:00 +21°C° 0 mm 2 mps 744 mmHg 55%
    09:00 +24°C° 0 mm 3 mps 744 mmHg 51%
    10:00 +25°C° 0 mm 3 mps 744 mmHg 47%
    11:00 +27°C° 0 mm 3 mps 743 mmHg 43%
    12:00 +28°C° 0 mm 3 mps 743 mmHg 40%
    13:00 +29°C° 0 mm 3 mps 742 mmHg 37%
    14:00 +30°C° 0 mm 2 mps 741 mmHg 34%
    15:00 +30°C° 0 mm 2 mps 741 mmHg 36%
    16:00 +29°C° 0 mm 2 mps 741 mmHg 37%
    17:00 +29°C° 0 mm 2 mps 741 mmHg 38%
    18:00 +28°C° 0 mm 2 mps 741 mmHg 40%
    19:00 +26°C° 0 mm 2 mps 742 mmHg 42%
    20:00 +25°C° 0 mm 3 mps 742 mmHg 44%
    21:00 +25°C° 0 mm 2 mps 742 mmHg 44%
    22:00 +24°C° 0 mm 2 mps 742 mmHg 45%
    23:00 +24°C° 0 mm 2 mps 742 mmHg 45%
    Show more